Location: N�rnberg
(49.4471°N, 11.0632°E)
Time: 22:24:58
(UTC+02:00)

VELOX 1 - Pass Details

Date: 23 April 2026
Orbit: 569 x 580 km, 98.3° (Epoch: 13 May)

Event Time Altitude Azimuth Distance (km) Brightness Sun altitude
Rises 00:58:37 0° 11° (N) 2,785 ? -28.0°
Reaches altitude 10° 01:00:47 10° 9° (N) 1,883 ? -28.0°
Enters shadow 01:03:39 42° 350° (N) 820 ? -28.1°
